| time (UTC) | temp C | wind direction | speed KPH | gust KPH | rain 1hr cm | rain 24hr cm | rain mn cm | humidity % | barometer mb |
| 20260831110309 | 23 | 217 | 4.8 | 14.5 | 0.00 | 0.00 | 0.00 | 54 | 1016.6 |
| 20260831105757 | 23 | 248 | 6.4 | 14.5 | 0.00 | 0.00 | 0.00 | 54 | 1016.7 |
| 20260831105259 | 23 | 247 | 8.0 | 14.5 | 0.00 | 0.00 | 0.00 | 54 | 1016.4 |
| 20260831104758 | 23 | 220 | 8.0 | 14.5 | 0.00 | 0.00 | 0.00 | 53 | 1016.5 |
| 20260831104302 | 23 | 233 | 6.4 | 17.7 | 0.00 | 0.00 | 0.00 | 53 | 1016.5 |
| 20260831103801 | 23 | 169 | 6.4 | 19.3 | 0.00 | 0.00 | 0.00 | 53 | 1016.5 |
| 20260831103704 | 23 | 224 | 6.4 | 19.3 | 0.00 | 0.00 | 0.00 | 53 | 1016.5 |
| 20260831102758 | 23 | 199 | 8.0 | 20.9 | 0.00 | 0.00 | 0.00 | 53 | 1016.5 |
| 20260831102258 | 23 | 217 | 9.7 | 20.9 | 0.00 | 0.00 | 0.00 | 52 | 1016.5 |
| 20260831101801 | 24 | 183 | 8.0 | 24.1 | 0.00 | 0.00 | 0.00 | 51 | 1016.5 |
| 20260831101738 | 24 | 158 | 11.3 | 24.1 | 0.00 | 0.00 | 0.00 | 52 | 1016.5 |
| 20260831101119 | 23 | 202 | 9.7 | 17.7 | 0.00 | 0.00 | 0.00 | 53 | 1016.5 |
| 20260831100257 | 23 | 193 | 8.0 | 16.1 | 0.00 | 0.00 | 0.00 | 52 | 1016.5 |
| 20260831095759 | 24 | 196 | 8.0 | 16.1 | 0.00 | 0.00 | 0.00 | 51 | 1016.6 |
| 20260831095717 | 24 | 196 | 11.3 | 22.5 | 0.00 | 0.00 | 0.00 | 51 | 1016.6 |
| 20260831094802 | 24 | 219 | 12.9 | 22.5 | 0.00 | 0.00 | 0.00 | 52 | 1016.5 |
| 20260831094256 | 23 | 221 | 9.7 | 17.7 | 0.00 | 0.00 | 0.00 | 52 | 1016.5 |
| 20260831093757 | 24 | 185 | 11.3 | 17.7 | 0.00 | 0.00 | 0.00 | 52 | 1016.4 |
| 20260831093527 | 24 | 212 | 6.4 | 19.3 | 0.00 | 0.00 | 0.00 | 51 | 1016.5 |
| 20260831092756 | 24 | 220 | 8.0 | 19.3 | 0.00 | 0.00 | 0.00 | 51 | 1016.6 |
| 20260831092256 | 23 | 158 | 6.4 | 17.7 | 0.00 | 0.00 | 0.00 | 52 | 1016.5 |
| 20260831091757 | 24 | 221 | 8.0 | 17.7 | 0.00 | 0.00 | 0.00 | 51 | 1016.6 |
| 20260831091257 | 23 | 182 | 9.7 | 16.1 | 0.00 | 0.00 | 0.00 | 52 | 1016.6 |
| 20260831090757 | 24 | 224 | 6.4 | 11.3 | 0.00 | 0.00 | 0.00 | 51 | 1016.6 |
| 20260831090258 | 24 | 197 | 6.4 | 11.3 | 0.00 | 0.00 | 0.00 | 51 | 1016.7 |
| 20260831090015 | 24 | 171 | 4.8 | 9.7 | 0.00 | 0.00 | 0.00 | 52 | 1016.7 |
| 20260831085801 | 24 | 171 | 4.8 | 9.7 | 0.00 | 0.00 | 0.00 | 52 | 1016.7 |
| 20260831085259 | 23 | 210 | 4.8 | 11.3 | 0.00 | 0.00 | 0.00 | 52 | 1016.6 |
| 20260831084800 | 23 | 121 | 4.8 | 11.3 | 0.00 | 0.00 | 0.00 | 53 | 1016.6 |
| 20260831084300 | 23 | 224 | 4.8 | 9.7 | 0.00 | 0.00 | 0.00 | 53 | 1016.7 |
| 20260831084214 | 23 | 188 | 3.2 | 9.7 | 0.00 | 0.00 | 0.00 | 53 | 1016.6 |
| 20260831083259 | 23 | 224 | 4.8 | 9.7 | 0.00 | 0.00 | 0.00 | 53 | 1016.5 |
| 20260831082756 | 23 | 227 | 3.2 | 8.0 | 0.00 | 0.00 | 0.00 | 53 | 1016.4 |
| 20260831082256 | 23 | 159 | 4.8 | 8.0 | 0.00 | 0.00 | 0.00 | 53 | 1016.4 |
| 20260831081809 | 23 | 183 | 3.2 | 14.5 | 0.00 | 0.00 | 0.00 | 51 | 1016.2 |
| 20260831081756 | 23 | 148 | 3.2 | 8.0 | 0.00 | 0.00 | 0.00 | 53 | 1016.3 |
| 20260831081600 | 24 | 141 | 6.4 | 14.5 | 0.00 | 0.00 | 0.00 | 51 | 1016.2 |
| 20260831081419 | 23 | 155 | 4.8 | 8.0 | 0.00 | 0.00 | 0.00 | 52 | 1016.2 |
| 20260831075757 | 24 | 128 | 6.4 | 11.3 | 0.00 | 0.00 | 0.00 | 50 | 1016.2 |
| 20260831075256 | 24 | 144 | 4.8 | 11.3 | 0.00 | 0.00 | 0.00 | 50 | 1016.2 |
| 20260831074756 | 25 | 124 | 4.8 | 14.5 | 0.00 | 0.00 | 0.00 | 49 | 1016.2 |
| 20260831074634 | 25 | 161 | 6.4 | 16.1 | 0.00 | 0.00 | 0.00 | 49 | 1016.2 |
| 20260831074458 | 25 | 175 | 4.8 | 14.5 | 0.00 | 0.00 | 0.00 | 49 | 1016.3 |
| 20260831073304 | 25 | 173 | 8.0 | 16.1 | 0.00 | 0.00 | 0.00 | 48 | 1016.2 |
| 20260831072802 | 25 | 151 | 4.8 | 16.1 | 0.00 | 0.00 | 0.00 | 48 | 1016.2 |
| 20260831072258 | 25 | 121 | 6.4 | 17.7 | 0.00 | 0.00 | 0.00 | 48 | 1016.2 |
| 20260831071758 | 25 | 152 | 4.8 | 17.7 | 0.00 | 0.00 | 0.00 | 48 | 1016.2 |
| 20260831071749 | 25 | 206 | 6.4 | 16.1 | 0.00 | 0.00 | 0.00 | 47 | 1016.3 |
| 20260831071509 | 25 | 173 | 6.4 | 17.7 | 0.00 | 0.00 | 0.00 | 47 | 1016.3 |
| 20260831070255 | 25 | 135 | 4.8 | 19.3 | 0.00 | 0.00 | 0.00 | 47 | 1016.3 |
| 20260831070241 | 25 | 124 | 9.7 | 19.3 | 0.00 | 0.00 | 0.00 | 47 | 1016.3 |
| 20260831065541 | 25 | 185 | 9.7 | 19.3 | 0.00 | 0.00 | 0.00 | 47 | 1016.3 |
| 20260831065313 | 25 | 185 | 9.7 | 19.3 | 0.00 | 0.00 | 0.00 | 47 | 1016.3 |
| 20260831064758 | 25 | 182 | 6.4 | 19.3 | 0.00 | 0.00 | 0.00 | 47 | 1016.2 |
| 20260831064256 | 25 | 186 | 8.0 | 16.1 | 0.00 | 0.00 | 0.00 | 47 | 1016.3 |
| 20260831063804 | 25 | 176 | 6.4 | 16.1 | 0.00 | 0.00 | 0.00 | 47 | 1016.2 |
| 20260831063300 | 25 | 251 | 6.4 | 16.1 | 0.00 | 0.00 | 0.00 | 47 | 1016.2 |
| 20260831063135 | 25 | 165 | 6.4 | 17.7 | 0.00 | 0.00 | 0.00 | 46 | 1016.1 |
| 20260831062257 | 25 | 171 | 8.0 | 17.7 | 0.00 | 0.00 | 0.00 | 46 | 1016.2 |
| 20260831061805 | 25 | 186 | 8.0 | 16.1 | 0.00 | 0.00 | 0.00 | 46 | 1016.1 |
| 20260831061257 | 25 | 168 | 4.8 | 11.3 | 0.00 | 0.00 | 0.00 | 46 | 1016.2 |
| 20260831060757 | 25 | 195 | 4.8 | 9.7 | 0.00 | 0.00 | 0.00 | 46 | 1016.2 |
| 20260831060256 | 25 | 142 | 4.8 | 11.3 | 0.00 | 0.00 | 0.00 | 45 | 1016.2 |
| 20260831055756 | 25 | 145 | 6.4 | 14.5 | 0.00 | 0.00 | 0.00 | 45 | 1016.2 |
| 20260831055618 | 26 | 157 | 4.8 | 8.0 | 0.00 | 0.00 | 0.00 | 45 | 1016.1 |
| 20260831055436 | 25 | 151 | 4.8 | 14.5 | 0.00 | 0.00 | 0.00 | 45 | 1016.2 |
| 20260831054654 | 26 | 210 | 4.8 | 14.5 | 0.00 | 0.00 | 0.00 | 44 | 1016.1 |
| 20260831053756 | 26 | 147 | 6.4 | 14.5 | 0.00 | 0.00 | 0.00 | 44 | 1016.1 |
| 20260831053300 | 26 | 158 | 4.8 | 11.3 | 0.00 | 0.00 | 0.00 | 43 | 1015.9 |
| 20260831052758 | 26 | 209 | 6.4 | 11.3 | 0.00 | 0.00 | 0.00 | 43 | 1015.9 |
| 20260831052301 | 26 | 159 | 6.4 | 11.3 | 0.00 | 0.00 | 0.00 | 43 | 1015.8 |
| 20260831051800 | 27 | 154 | 6.4 | 16.1 | 0.00 | 0.00 | 0.00 | 42 | 1015.8 |
| 20260831051258 | 27 | 186 | 6.4 | 16.1 | 0.00 | 0.00 | 0.00 | 42 | 1015.7 |
| 20260831050758 | 27 | 80 | 8.0 | 16.1 | 0.00 | 0.00 | 0.00 | 42 | 1015.7 |
| 20260831050256 | 27 | 182 | 8.0 | 11.3 | 0.00 | 0.00 | 0.00 | 41 | 1015.7 |
| 20260831045756 | 27 | 165 | 6.4 | 14.5 | 0.00 | 0.00 | 0.00 | 41 | 1015.6 |
| 20260831045522 | 27 | 190 | 6.4 | 20.9 | 0.00 | 0.00 | 0.00 | 41 | 1015.6 |
| 20260831045307 | 27 | 121 | 6.4 | 17.7 | 0.00 | 0.00 | 0.00 | 41 | 1015.6 |
| 20260831045248 | 27 | 190 | 6.4 | 20.9 | 0.00 | 0.00 | 0.00 | 41 | 1015.6 |
| 20260831044332 | 27 | 120 | 8.0 | 11.3 | 0.00 | 0.00 | 0.00 | 40 | 1015.6 |
| 20260831044305 | 27 | 206 | 6.4 | 20.9 | 0.00 | 0.00 | 0.00 | 40 | 1015.6 |
| 20260831043648 | 27 | 197 | 6.4 | 17.7 | 0.00 | 0.00 | 0.00 | 41 | 1015.5 |
| 20260831042756 | 27 | 172 | 6.4 | 19.3 | 0.00 | 0.00 | 0.00 | 40 | 1015.6 |
| 20260831042255 | 27 | 145 | 9.7 | 19.3 | 0.00 | 0.00 | 0.00 | 40 | 1015.5 |
| 20260831042035 | 27 | 164 | 8.0 | 16.1 | 0.00 | 0.00 | 0.00 | 41 | 1015.6 |
| 20260831041803 | 27 | 164 | 8.0 | 16.1 | 0.00 | 0.00 | 0.00 | 41 | 1015.6 |
| 20260831041317 | 28 | 166 | 8.0 | 20.9 | 0.00 | 0.00 | 0.00 | 40 | 1015.6 |
| 20260831040820 | 28 | 235 | 11.3 | 19.3 | 0.00 | 0.00 | 0.00 | 40 | 1015.5 |
| 20260831040806 | 28 | 176 | 11.3 | 20.9 | 0.00 | 0.00 | 0.00 | 40 | 1015.6 |
| 20260831035818 | 28 | 127 | 6.4 | 16.1 | 0.00 | 0.00 | 0.00 | 39 | 1015.5 |
| 20260831035807 | 28 | 168 | 8.0 | 20.9 | 0.00 | 0.00 | 0.00 | 39 | 1015.4 |
| 20260831035757 | 28 | 124 | 6.4 | 17.7 | 0.00 | 0.00 | 0.00 | 40 | 1015.5 |
| 20260831034626 | 28 | 176 | 8.0 | 17.7 | 0.00 | 0.00 | 0.00 | 39 | 1015.4 |
| 20260831033539 | 28 | 117 | 8.0 | 20.9 | 0.00 | 0.00 | 0.00 | 39 | 1015.3 |
| 20260831033320 | 28 | 117 | 8.0 | 20.9 | 0.00 | 0.00 | 0.00 | 39 | 1015.3 |
| 20260831032803 | 28 | 73 | 6.4 | 16.1 | 0.00 | 0.00 | 0.00 | 39 | 1015.3 |
| 20260831032259 | 28 | 133 | 8.0 | 17.7 | 0.00 | 0.00 | 0.00 | 39 | 1015.3 |
| 20260831032146 | 29 | 138 | 8.0 | 19.3 | 0.00 | 0.00 | 0.00 | 38 | 1015.3 |
| 20260831031737 | 29 | 113 | 6.4 | 24.1 | 0.00 | 0.00 | 0.00 | 38 | 1015.3 |
| 20260831031253 | 29 | 114 | 11.3 | 24.1 | 0.00 | 0.00 | 0.00 | 38 | 1015.1 |
| 20260831031018 | 29 | 114 | 11.3 | 24.1 | 0.00 | 0.00 | 0.00 | 38 | 1015.1 |
| 20260831030805 | 29 | 114 | 11.3 | 24.1 | 0.00 | 0.00 | 0.00 | 38 | 1015.1 |
| 20260831030700 | 29 | 195 | 9.7 | 20.9 | 0.00 | 0.00 | 0.00 | 38 | 1014.9 |
| 20260831025758 | 29 | 172 | 8.0 | 17.7 | 0.00 | 0.00 | 0.00 | 38 | 1014.9 |
| 20260831025516 | 29 | 182 | 6.4 | 17.7 | 0.00 | 0.00 | 0.00 | 38 | 1014.8 |
| 20260831024756 | 29 | 166 | 9.7 | 19.3 | 0.00 | 0.00 | 0.00 | 38 | 1014.7 |
| 20260831024256 | 30 | 183 | 4.8 | 19.3 | 0.00 | 0.00 | 0.00 | 37 | 1014.7 |
| 20260831023756 | 30 | 107 | 8.0 | 19.3 | 0.00 | 0.00 | 0.00 | 37 | 1014.6 |
| 20260831023257 | 30 | 117 | 9.7 | 22.5 | 0.00 | 0.00 | 0.00 | 37 | 1014.7 |
| 20260831022755 | 30 | 144 | 8.0 | 22.5 | 0.00 | 0.00 | 0.00 | 36 | 1014.5 |
| 20260831022257 | 30 | 217 | 8.0 | 22.5 | 0.00 | 0.00 | 0.00 | 36 | 1014.4 |
| 20260831021758 | 30 | 127 | 8.0 | 22.5 | 0.00 | 0.00 | 0.00 | 36 | 1014.4 |
| 20260831021302 | 31 | 164 | 11.3 | 22.5 | 0.00 | 0.00 | 0.00 | 36 | 1014.3 |
| 20260831021135 | 31 | 145 | 9.7 | 22.5 | 0.00 | 0.00 | 0.00 | 35 | 1014.3 |
| 20260831020651 | 31 | 110 | 11.3 | 20.9 | 0.00 | 0.00 | 0.00 | 35 | 1014.0 |
| 20260831015755 | 31 | 134 | 4.8 | 20.9 | 0.00 | 0.00 | 0.00 | 34 | 1014.2 |
| 20260831015449 | 31 | 117 | 8.0 | 24.1 | 0.00 | 0.00 | 0.00 | 34 | 1014.2 |
| 20260831015256 | 31 | 166 | 8.0 | 24.1 | 0.00 | 0.00 | 0.00 | 34 | 1014.2 |
| 20260831014259 | 31 | 140 | 6.4 | 19.3 | 0.00 | 0.00 | 0.00 | 33 | 1014.0 |
| 20260831013758 | 31 | 168 | 8.0 | 20.9 | 0.00 | 0.00 | 0.00 | 33 | 1013.9 |
| 20260831013255 | 32 | 212 | 8.0 | 20.9 | 0.00 | 0.00 | 0.00 | 33 | 1013.9 |
| 20260831012756 | 32 | 138 | 11.3 | 22.5 | 0.00 | 0.00 | 0.00 | 33 | 1013.9 |
| 20260831012257 | 32 | 140 | 6.4 | 22.5 | 0.00 | 0.00 | 0.00 | 32 | 1013.9 |
| 20260831012210 | 32 | 179 | 6.4 | 19.3 | 0.00 | 0.00 | 0.00 | 32 | 1013.9 |
| 20260831011255 | 32 | 168 | 8.0 | 20.9 | 0.00 | 0.00 | 0.00 | 32 | 1013.9 |
| 20260831010758 | 32 | 168 | 9.7 | 20.9 | 0.00 | 0.00 | 0.00 | 31 | 1013.8 |
| 20260831010255 | 33 | 166 | 6.4 | 19.3 | 0.00 | 0.00 | 0.00 | 31 | 1013.7 |
| 20260831005755 | 33 | 121 | 8.0 | 17.7 | 0.00 | 0.00 | 0.00 | 31 | 1013.8 |
| 20260831005257 | 33 | 152 | 8.0 | 19.3 | 0.00 | 0.00 | 0.00 | 31 | 1013.8 |
| 20260831004800 | 33 | 133 | 9.7 | 24.1 | 0.00 | 0.00 | 0.00 | 30 | 1013.6 |
| 20260831004523 | 33 | 131 | 12.9 | 25.7 | 0.00 | 0.00 | 0.00 | 30 | 1013.6 |
| 20260831003759 | 33 | 128 | 9.7 | 25.7 | 0.00 | 0.00 | 0.00 | 29 | 1013.6 |
| 20260831003255 | 33 | 182 | 9.7 | 29.0 | 0.00 | 0.00 | 0.00 | 30 | 1013.6 |
| 20260831002755 | 34 | 134 | 12.9 | 29.0 | 0.00 | 0.00 | 0.00 | 29 | 1013.6 |
| 20260831002255 | 34 | 159 | 8.0 | 25.7 | 0.00 | 0.00 | 0.00 | 29 | 1013.6 |
| 20260831001755 | 34 | 151 | 9.7 | 27.4 | 0.00 | 0.00 | 0.00 | 30 | 1013.5 |
| 20260831001257 | 35 | 157 | 12.9 | 27.4 | 0.00 | 0.00 | 0.00 | 28 | 1013.6 |
| 20260831000755 | 35 | 169 | 6.4 | 27.4 | 0.00 | 0.00 | 0.00 | 28 | 1013.5 |
| 20260831000256 | 35 | 182 | 11.3 | 27.4 | 0.00 | 0.00 | 0.00 | 27 | 1013.6 |
| 20260830235755 | 35 | 216 | 8.0 | 27.4 | 0.00 | 0.00 | 0.00 | 28 | 1013.6 |
| 20260830235642 | 35 | 161 | 12.9 | 27.4 | 0.00 | 0.00 | 0.00 | 27 | 1013.6 |
| 20260830234755 | 35 | 224 | 12.9 | 25.7 | 0.00 | 0.00 | 0.00 | 28 | 1013.6 |
| 20260830234254 | 36 | 107 | 9.7 | 27.4 | 0.00 | 0.00 | 0.00 | 27 | 1013.6 |
| 20260830233757 | 36 | 131 | 11.3 | 25.7 | 0.00 | 0.00 | 0.00 | 28 | 1013.6 |
| 20260830233255 | 36 | 185 | 8.0 | 25.7 | 0.00 | 0.00 | 0.00 | 27 | 1013.6 |
| 20260830232758 | 36 | 213 | 9.7 | 25.7 | 0.00 | 0.00 | 0.00 | 27 | 1013.6 |
| 20260830232305 | 36 | 173 | 9.7 | 24.1 | 0.00 | 0.00 | 0.00 | 27 | 1013.6 |
| 20260830231756 | 36 | 164 | 9.7 | 25.7 | 0.00 | 0.00 | 0.00 | 27 | 1013.7 |
| 20260830231259 | 36 | 192 | 14.5 | 25.7 | 0.00 | 0.00 | 0.00 | 27 | 1013.7 |
| 20260830231205 | 36 | 80 | 11.3 | 24.1 | 0.00 | 0.00 | 0.00 | 27 | 1013.8 |
| 20260830230256 | 36 | 142 | 11.3 | 29.0 | 0.00 | 0.00 | 0.00 | 27 | 1013.7 |
| 20260830225755 | 36 | 176 | 12.9 | 32.2 | 0.00 | 0.00 | 0.00 | 26 | 1013.5 |
| 20260830225255 | 36 | 169 | 11.3 | 32.2 | 0.00 | 0.00 | 0.00 | 27 | 1013.6 |
| 20260830224758 | 36 | 165 | 14.5 | 30.6 | 0.00 | 0.00 | 0.00 | 27 | 1013.6 |
| 20260830224255 | 36 | 168 | 9.7 | 30.6 | 0.00 | 0.00 | 0.00 | 27 | 1013.6 |
| 20260830223755 | 37 | 130 | 11.3 | 22.5 | 0.00 | 0.00 | 0.00 | 27 | 1013.6 |
| 20260830223257 | 37 | 188 | 8.0 | 24.1 | 0.00 | 0.00 | 0.00 | 26 | 1013.8 |
| 20260830222756 | 37 | 158 | 9.7 | 24.1 | 0.00 | 0.00 | 0.00 | 27 | 1013.7 |
| 20260830222301 | 37 | 166 | 11.3 | 24.1 | 0.00 | 0.00 | 0.00 | 26 | 1013.7 |
| 20260830221755 | 37 | 185 | 9.7 | 24.1 | 0.00 | 0.00 | 0.00 | 26 | 1013.7 |
| 20260830221615 | 37 | 226 | 6.4 | 24.1 | 0.00 | 0.00 | 0.00 | 26 | 1013.7 |
| 20260830220756 | 37 | 234 | 6.4 | 24.1 | 0.00 | 0.00 | 0.00 | 26 | 1013.7 |
| 20260830220301 | 37 | 195 | 9.7 | 20.9 | 0.00 | 0.00 | 0.00 | 26 | 1013.8 |
| 20260830215757 | 37 | 317 | 6.4 | 25.7 | 0.00 | 0.00 | 0.00 | 26 | 1013.8 |
| 20260830215257 | 37 | 196 | 14.5 | 25.7 | 0.00 | 0.00 | 0.00 | 26 | 1013.8 |
| 20260830214757 | 37 | 158 | 6.4 | 29.0 | 0.00 | 0.00 | 0.00 | 26 | 1013.7 |
| 20260830214255 | 37 | 173 | 12.9 | 29.0 | 0.00 | 0.00 | 0.00 | 26 | 1013.9 |
| 20260830213755 | 37 | 192 | 9.7 | 20.9 | 0.00 | 0.00 | 0.00 | 27 | 1013.8 |
| 20260830213256 | 37 | 262 | 11.3 | 20.9 | 0.00 | 0.00 | 0.00 | 27 | 1013.9 |
| 20260830213031 | 38 | 104 | 9.7 | 24.1 | 0.00 | 0.00 | 0.00 | 27 | 1014.2 |
| 20260830212921 | 37 | 140 | 6.4 | 22.5 | 0.00 | 0.00 | 0.00 | 26 | 1014.0 |
| 20260830211754 | 37 | 227 | 14.5 | 29.0 | 0.00 | 0.00 | 0.00 | 28 | 1014.2 |
| 20260830211256 | 37 | 223 | 14.5 | 29.0 | 0.00 | 0.00 | 0.00 | 28 | 1014.2 |
| 20260830210759 | 37 | 159 | 14.5 | 27.4 | 0.00 | 0.00 | 0.00 | 28 | 1014.4 |
| 20260830210644 | 37 | 168 | 9.7 | 24.1 | 0.00 | 0.00 | 0.00 | 28 | 1014.4 |
| 20260830205757 | 37 | 134 | 11.3 | 25.7 | 0.00 | 0.00 | 0.00 | 27 | 1014.5 |
| 20260830205257 | 37 | 220 | 9.7 | 25.7 | 0.00 | 0.00 | 0.00 | 27 | 1014.7 |
| 20260830205147 | 37 | 148 | 12.9 | 32.2 | 0.00 | 0.00 | 0.00 | 27 | 1014.7 |
| 20260830204255 | 37 | 168 | 9.7 | 32.2 | 0.00 | 0.00 | 0.00 | 28 | 1014.7 |
| 20260830203756 | 37 | 172 | 9.7 | 22.5 | 0.00 | 0.00 | 0.00 | 28 | 1014.6 |
| 20260830203255 | 37 | 241 | 12.9 | 22.5 | 0.00 | 0.00 | 0.00 | 27 | 1015.1 |
| 20260830203141 | 37 | 182 | 11.3 | 25.7 | 0.00 | 0.00 | 0.00 | 27 | 1014.9 |
| 20260830202255 | 37 | 144 | 8.0 | 25.7 | 0.00 | 0.00 | 0.00 | 28 | 1015.1 |
| 20260830201755 | 37 | 193 | 9.7 | 24.1 | 0.00 | 0.00 | 0.00 | 28 | 1015.1 |
| 20260830201256 | 37 | 179 | 12.9 | 24.1 | 0.00 | 0.00 | 0.00 | 28 | 1015.2 |
| 20260830200755 | 37 | 204 | 16.1 | 24.1 | 0.00 | 0.00 | 0.00 | 27 | 1015.2 |
| 20260830200255 | 37 | 180 | 9.7 | 27.4 | 0.00 | 0.00 | 0.00 | 27 | 1015.3 |
| 20260830195759 | 37 | 165 | 12.9 | 27.4 | 0.00 | 0.00 | 0.00 | 28 | 1015.4 |
| 20260830195256 | 37 | 144 | 8.0 | 37.0 | 0.00 | 0.00 | 0.00 | 27 | 1015.2 |
| 20260830194757 | 37 | 228 | 11.3 | 37.0 | 0.00 | 0.00 | 0.00 | 28 | 1015.5 |
| 20260830194254 | 37 | 230 | 11.3 | 25.7 | 0.00 | 0.00 | 0.00 | 29 | 1015.5 |
| 20260830194137 | 37 | 133 | 9.7 | 29.0 | 0.00 | 0.00 | 0.00 | 28 | 1015.3 |
| 20260830193257 | 37 | 220 | 16.1 | 29.0 | 0.00 | 0.00 | 0.00 | 28 | 1015.3 |
| 20260830192755 | 37 | 202 | 9.7 | 22.5 | 0.00 | 0.00 | 0.00 | 28 | 1015.4 |
| 20260830192255 | 37 | 196 | 9.7 | 24.1 | 0.00 | 0.00 | 0.00 | 29 | 1015.5 |
| 20260830191755 | 37 | 241 | 14.5 | 38.6 | 0.00 | 0.00 | 0.00 | 29 | 1015.5 |
| 20260830191254 | 36 | 210 | 16.1 | 38.6 | 0.00 | 0.00 | 0.00 | 28 | 1015.6 |
| 20260830190756 | 36 | 152 | 14.5 | 30.6 | 0.00 | 0.00 | 0.00 | 29 | 1015.6 |
| 20260830190255 | 36 | 257 | 11.3 | 30.6 | 0.00 | 0.00 | 0.00 | 30 | 1015.6 |
| 20260830185755 | 36 | 188 | 12.9 | 30.6 | 0.00 | 0.00 | 0.00 | 29 | 1015.7 |
| 20260830185254 | 36 | 190 | 16.1 | 27.4 | 0.00 | 0.00 | 0.00 | 29 | 1015.9 |
| 20260830184755 | 36 | 190 | 8.0 | 27.4 | 0.00 | 0.00 | 0.00 | 29 | 1015.8 |
| 20260830184254 | 36 | 168 | 12.9 | 27.4 | 0.00 | 0.00 | 0.00 | 29 | 1015.9 |
| 20260830183755 | 36 | 179 | 11.3 | 33.8 | 0.00 | 0.00 | 0.00 | 31 | 1016.1 |
| 20260830183653 | 36 | 213 | 16.1 | 33.8 | 0.00 | 0.00 | 0.00 | 31 | 1016.2 |
| 20260830182755 | 36 | 175 | 11.3 | 33.8 | 0.00 | 0.00 | 0.00 | 31 | 1016.1 |
| 20260830182254 | 36 | 217 | 14.5 | 33.8 | 0.00 | 0.00 | 0.00 | 32 | 1016.3 |
| 20260830181754 | 36 | 209 | 12.9 | 33.8 | 0.00 | 0.00 | 0.00 | 31 | 1016.2 |
| 20260830181559 | 35 | 137 | 16.1 | 33.8 | 0.00 | 0.00 | 0.00 | 33 | 1016.2 |
| 20260830180756 | 35 | 209 | 14.5 | 27.4 | 0.00 | 0.00 | 0.00 | 33 | 1016.3 |
| 20260830180256 | 35 | 197 | 14.5 | 30.6 | 0.00 | 0.00 | 0.00 | 35 | 1016.4 |
| 20260830175757 | 35 | 161 | 14.5 | 33.8 | 0.00 | 0.00 | 0.00 | 34 | 1016.5 |
| 20260830175254 | 35 | 230 | 14.5 | 37.0 | 0.00 | 0.00 | 0.00 | 34 | 1016.5 |
| 20260830174755 | 35 | 151 | 14.5 | 37.0 | 0.00 | 0.00 | 0.00 | 34 | 1016.6 |
| 20260830174255 | 35 | 214 | 11.3 | 24.1 | 0.00 | 0.00 | 0.00 | 36 | 1016.6 |
| 20260830173753 | 35 | 234 | 11.3 | 35.4 | 0.00 | 0.00 | 0.00 | 36 | 1016.7 |
| 20260830173255 | 35 | 159 | 14.5 | 35.4 | 0.00 | 0.00 | 0.00 | 36 | 1016.8 |
| 20260830172754 | 34 | 186 | 9.7 | 29.0 | 0.00 | 0.00 | 0.00 | 37 | 1016.8 |
| 20260830172629 | 35 | 182 | 14.5 | 29.0 | 0.00 | 0.00 | 0.00 | 37 | 1016.8 |
| 20260830171759 | 34 | 230 | 12.9 | 27.4 | 0.00 | 0.00 | 0.00 | 38 | 1016.8 |
| 20260830171254 | 34 | 176 | 14.5 | 32.2 | 0.00 | 0.00 | 0.00 | 39 | 1016.9 |
| 20260830170754 | 33 | 207 | 17.7 | 32.2 | 0.00 | 0.00 | 0.00 | 39 | 1016.9 |
| 20260830170256 | 33 | 220 | 11.3 | 33.8 | 0.00 | 0.00 | 0.00 | 39 | 1017.1 |
| 20260830170138 | 33 | 168 | 11.3 | 33.8 | 0.00 | 0.00 | 0.00 | 40 | 1017.1 |
| 20260830165256 | 33 | 230 | 17.7 | 29.0 | 0.00 | 0.00 | 0.00 | 40 | 1016.9 |
| 20260830164754 | 33 | 243 | 11.3 | 25.7 | 0.00 | 0.00 | 0.00 | 42 | 1017.1 |
| 20260830164255 | 33 | 159 | 9.7 | 29.0 | 0.00 | 0.00 | 0.00 | 41 | 1017.1 |
| 20260830163754 | 32 | 192 | 14.5 | 29.0 | 0.00 | 0.00 | 0.00 | 43 | 1017.2 |
| 20260830163627 | 32 | 212 | 17.7 | 29.0 | 0.00 | 0.00 | 0.00 | 43 | 1017.1 |
| 20260830162800 | 32 | 158 | 12.9 | 32.2 | 0.00 | 0.00 | 0.00 | 44 | 1017.3 |
| 20260830162256 | 32 | 149 | 14.5 | 37.0 | 0.00 | 0.00 | 0.00 | 44 | 1017.2 |
| 20260830161754 | 31 | 250 | 11.3 | 37.0 | 0.00 | 0.00 | 0.00 | 44 | 1017.2 |
| 20260830161254 | 31 | 148 | 17.7 | 33.8 | 0.00 | 0.00 | 0.00 | 44 | 1017.2 |
| 20260830161125 | 31 | 209 | 20.9 | 33.8 | 0.00 | 0.00 | 0.00 | 46 | 1017.1 |
| 20260830160254 | 31 | 221 | 12.9 | 33.8 | 0.00 | 0.00 | 0.00 | 46 | 1017.1 |
| 20260830155755 | 31 | 207 | 16.1 | 30.6 | 0.00 | 0.00 | 0.00 | 46 | 1017.2 |
| 20260830155523 | 30 | 206 | 9.7 | 27.4 | 0.00 | 0.00 | 0.00 | 46 | 1017.2 |
| 20260830155422 | 31 | 237 | 12.9 | 30.6 | 0.00 | 0.00 | 0.00 | 47 | 1017.1 |
| 20260830154254 | 30 | 230 | 9.7 | 25.7 | 0.00 | 0.00 | 0.00 | 48 | 1017.1 |
| 20260830153757 | 30 | 247 | 16.1 | 25.7 | 0.00 | 0.00 | 0.00 | 48 | 1017.2 |
| 20260830153256 | 30 | 185 | 12.9 | 25.7 | 0.00 | 0.00 | 0.00 | 49 | 1017.1 |
| 20260830152754 | 30 | 226 | 9.7 | 22.5 | 0.00 | 0.00 | 0.00 | 48 | 1017.2 |
| 20260830152255 | 30 | 196 | 11.3 | 32.2 | 0.00 | 0.00 | 0.00 | 50 | 1017.2 |
| 20260830151757 | 29 | 199 | 11.3 | 32.2 | 0.00 | 0.00 | 0.00 | 49 | 1017.2 |
| 20260830151256 | 29 | 213 | 9.7 | 25.7 | 0.00 | 0.00 | 0.00 | 51 | 1017.2 |
| 20260830150757 | 29 | 196 | 14.5 | 27.4 | 0.00 | 0.00 | 0.00 | 51 | 1017.3 |
| 20260830150254 | 28 | 195 | 8.0 | 27.4 | 0.00 | 0.00 | 0.00 | 51 | 1017.4 |
| 20260830145754 | 28 | 176 | 14.5 | 30.6 | 0.00 | 0.00 | 0.00 | 52 | 1017.4 |
| 20260830145635 | 28 | 226 | 12.9 | 30.6 | 0.00 | 0.00 | 0.00 | 52 | 1017.4 |
| 20260830144755 | 28 | 176 | 9.7 | 24.1 | 0.00 | 0.00 | 0.00 | 53 | 1017.3 |
| 20260830144254 | 27 | 141 | 14.5 | 24.1 | 0.00 | 0.00 | 0.00 | 52 | 1017.4 |
| 20260830143756 | 27 | 183 | 12.9 | 25.7 | 0.00 | 0.00 | 0.00 | 54 | 1017.3 |
| 20260830143254 | 27 | 226 | 8.0 | 25.7 | 0.00 | 0.00 | 0.00 | 54 | 1017.3 |
| 20260830142754 | 27 | 192 | 12.9 | 24.1 | 0.00 | 0.00 | 0.00 | 55 | 1017.4 |
| 20260830142254 | 27 | 230 | 8.0 | 29.0 | 0.00 | 0.00 | 0.00 | 55 | 1017.4 |
| 20260830142126 | 26 | 237 | 11.3 | 29.0 | 0.00 | 0.00 | 0.00 | 55 | 1017.4 |
| 20260830141624 | 26 | 226 | 9.7 | 27.4 | 0.00 | 0.00 | 0.00 | 56 | 1017.4 |
| 20260830140754 | 26 | 216 | 11.3 | 27.4 | 0.00 | 0.00 | 0.00 | 55 | 1017.4 |
| 20260830140254 | 26 | 124 | 8.0 | 24.1 | 0.00 | 0.00 | 0.00 | 56 | 1017.4 |
| 20260830140130 | 26 | 183 | 9.7 | 24.1 | 0.00 | 0.00 | 0.00 | 57 | 1017.5 |
| 20260830135343 | 25 | 196 | 8.0 | 19.3 | 0.00 | 0.00 | 0.00 | 57 | 1017.3 |
| 20260830135336 | 25 | 207 | 11.3 | 19.3 | 0.00 | 0.00 | 0.00 | 57 | 1017.4 |
| 20260830135317 | 25 | 226 | 9.7 | 20.9 | 0.00 | 0.00 | 0.00 | 57 | 1017.5 |
| 20260830133755 | 25 | 216 | 8.0 | 19.3 | 0.00 | 0.00 | 0.00 | 57 | 1017.3 |
| 20260830133256 | 25 | 254 | 9.7 | 24.1 | 0.00 | 0.00 | 0.00 | 57 | 1017.3 |
| 20260830132756 | 25 | 180 | 6.4 | 24.1 | 0.00 | 0.00 | 0.00 | 57 | 1017.2 |
| 20260830132255 | 25 | 237 | 11.3 | 22.5 | 0.00 | 0.00 | 0.00 | 57 | 1017.1 |
| 20260830131754 | 25 | 196 | 9.7 | 20.9 | 0.00 | 0.00 | 0.00 | 57 | 1016.9 |
| 20260830131255 | 25 | 245 | 8.0 | 22.5 | 0.00 | 0.00 | 0.00 | 57 | 1016.9 |
| 20260830130754 | 25 | 207 | 9.7 | 24.1 | 0.00 | 0.00 | 0.00 | 57 | 1016.9 |
| 20260830130255 | 25 | 265 | 9.7 | 24.1 | 0.00 | 0.00 | 0.00 | 57 | 1016.9 |
| 20260830125756 | 25 | 213 | 11.3 | 27.4 | 0.00 | 0.00 | 0.00 | 57 | 1016.8 |
| 20260830125254 | 25 | 272 | 8.0 | 27.4 | 0.00 | 0.00 | 0.00 | 56 | 1016.8 |
| 20260830125128 | 25 | 193 | 9.7 | 24.1 | 0.00 | 0.00 | 0.00 | 56 | 1016.8 |
| 20260830124622 | 25 | 186 | 9.7 | 27.4 | 0.00 | 0.00 | 0.00 | 56 | 1016.8 |
| 20260830123754 | 25 | 203 | 12.9 | 27.4 | 0.00 | 0.00 | 0.00 | 56 | 1016.7 |
| 20260830123255 | 25 | 209 | 11.3 | 27.4 | 0.00 | 0.00 | 0.00 | 56 | 1016.7 |
| 20260830122755 | 24 | 190 | 11.3 | 27.4 | 0.00 | 0.00 | 0.00 | 56 | 1016.7 |
| 20260830122256 | 25 | 230 | 11.3 | 30.6 | 0.00 | 0.00 | 0.00 | 56 | 1016.7 |
| 20260830121755 | 25 | 197 | 8.0 | 30.6 | 0.00 | 0.00 | 0.00 | 56 | 1016.6 |
| 20260830121629 | 25 | 219 | 11.3 | 32.2 | 0.00 | 0.00 | 0.00 | 55 | 1016.6 |
| 20260830121059 | 25 | 206 | 14.5 | 32.2 | 0.00 | 0.00 | 0.00 | 55 | 1016.5 |
| 20260830120254 | 25 | 245 | 9.7 | 20.9 | 0.00 | 0.00 | 0.00 | 56 | 1016.5 |
| 20260830115755 | 25 | 195 | 11.3 | 20.9 | 0.00 | 0.00 | 0.00 | 56 | 1016.4 |
| 20260830115716 | 25 | 216 | 9.7 | 24.1 | 0.00 | 0.00 | 0.00 | 55 | 1016.4 |
| 20260830114910 | 25 | 224 | 12.9 | 24.1 | 0.00 | 0.00 | 0.00 | 55 | 1016.4 |
| 20260830114125 | 25 | 213 | 8.0 | 27.4 | 0.00 | 0.00 | 0.00 | 55 | 1016.4 |
| 20260830113254 | 25 | 233 | 12.9 | 27.4 | 0.00 | 0.00 | 0.00 | 55 | 1016.4 |
| 20260830113122 | 24 | 192 | 8.0 | 22.5 | 0.00 | 0.00 | 0.00 | 55 | 1016.5 |
| 20260830112635 | 24 | 168 | 9.7 | 22.5 | 0.00 | 0.00 | 0.00 | 54 | 1016.5 |
| 20260830111755 | 24 | 210 | 8.0 | 17.7 | 0.00 | 0.00 | 0.00 | 54 | 1016.5 |
| 20260830111255 | 24 | 199 | 6.4 | 17.7 | 0.00 | 0.00 | 0.00 | 54 | 1016.4 |
| 20260830110754 | 24 | 228 | 8.0 | 16.1 | 0.00 | 0.00 | 0.00 | 53 | 1016.4 |
| 20260830110637 | 25 | 212 | 4.8 | 17.7 | 0.00 | 0.00 | 0.00 | 53 | 1016.3 |